Location: Glen Waverley
(37.8830°S, 145.1670°E)
Time: 17:34:56
(UTC+10:00)

ISS - Visible Passes

Search period start: 26 September 2020 00:00
Search period end: 06 October 2020 01:00
Orbit: 419 x 420 km, 51.6° (Epoch: 26 September)

Date Brightness Start Highest point End Pass type
(mag) Time Alt. Az. Time Alt. Az. Time Alt. Az.
26 Sep -2.5 04:04:27 39° ENE 04:04:27 39° ENE 04:07:13 10° ESE visible
27 Sep -0.4 03:19:08 12° E 03:19:08 12° E 03:19:30 10° ESE visible
27 Sep -2.8 04:52:06 25° WSW 04:53:22 35° SSW 04:56:34 10° SE visible
28 Sep -2.8 04:06:41 43° SSE 04:06:41 43° SSE 04:09:18 10° SE visible
29 Sep -0.6 03:21:11 16° SE 03:21:11 16° SE 03:21:56 10° SE visible
29 Sep -1.6 04:54:09 13° SW 04:55:41 17° SSW 04:58:03 10° SSE visible
30 Sep -1.9 04:08:35 22° SSW 04:08:35 22° SSW 04:10:56 10° SSE visible
01 Oct -0.7 03:22:57 15° SSE 03:22:57 15° SSE 03:23:43 10° SE visible
01 Oct -1.0 04:57:20 10° SSW 04:58:11 11° SSW 04:59:01 10° S visible
02 Oct -1.2 04:10:14 13° SSW 04:10:27 13° SSW 04:12:10 10° SSE visible
03 Oct -0.7 03:24:31 13° SSE 03:24:31 13° SSE 03:25:07 10° SSE visible
05 Oct -0.6 04:25:57 10° S 04:25:57 10° S 04:25:58 10° S visible
